Location: The Saddle
(36.8333°N, 80.3417°W)
Time: 08:01:39
(UTC-05:00)

Vanguard 2 Rocket - Pass Details

Date: 15 December 2023
Orbit: 555 x 3309 km, 32.9° (Epoch: 02 March)

Event Time Altitude Azimuth Distance (km) Brightness Sun altitude
Rises 17:34:34 0° 283° (WNW) 6,532 12.2 -5.9°
Reaches altitude 10° 17:38:44 10° 278° (W) 5,774 12.0 -6.7°
Maximum altitude 17:56:27 49° 211° (SSW) 3,918 10.5 -9.9°
Drops below altitude 10° 18:14:05 10° 144° (SE) 5,716 10.8 -13.2°
Sets 18:18:13 0° 138° (SE) 6,461 11.0 -14.0°
